Vertical_Velocity
1 10 7 4 5 -2 -1 -0 -3 1 4 2 1 -1 1 -3 -3 -0 1 1 0 -1
-5 10 -1 9 -6 -1 0 -2 3 6 1 -1 -1 -1 -1 -4 -4 -1 1 1 -1 -2
2 1 5 3 -1 -2 1 -1 -1 -4 1 3 0 -0 -1 -1 -3 -3 -4 -1 2 1
-7 -7 9 12 -5 6 -4 -0 -1 -1 -3 -3 1 5 -1 2 -1 -2 1 1 1 0
4 -20 2 11 6 -1 -3 -2 1 -3 -1 0 -2 -1 4 2 3 -1 -2 1 0 -2
7 3 -10 30 -4 7 -2 -3 -3 3 -2 -0 1 -2 1 3 3 -0 0 0 -2 -0
6 -15 19 -1 -18 16 -1 -3 9 -2 -6 -1 1 -2 5 -2 -1 2 1 0 -1 -2
-6 -9 10 -0 -9 5 1 1 -1 -5 1 -2 -2 -3 -2 0 -1 8 3 -1 -1 -2
-3 5 1 -7 -11 12 1 2 3 4 -3 0 -5 1 -1 -3 3 4 2 -5 -2 -3
-10 -5 10 -6 -4 -6 12 -12 -11 5 1 -4 2 6 7 3 -1 -1 0 -3 -2 -3
5 1 0 -13 6 2 -4 -7 0 -1 -1 2 7 1 -2 -2 -3 -2 -2 -3 -2 1
-0 -5 -6 0 3 3 -4 -2 -1 -3 7 7 -3 -6 -2 -1 -1 -2 -5 -2 -2 -2
-4 -3 2 -3 -2 -0 3 0 -3 1 18 -2 -1 1 -3 1 2 -4 -0 1 0 0
2 4 -3 1 4 2 -1 0 3 -1 2 -2 4 -2 0 -1 -0 2 4 5 5 4
Height
1476 1472 1472 1472 1473 1474 1475 1476 1476 1477 1478 1478 1479 1480 1480 1481 1482 1483 1483 1484 1485 1485
1470 1465 1465 1465 1466 1469 1470 1469 1469 1470 1470 1471 1472 1473 1474 1475 1475 1476 1476 1476 1477 1478
1465 1460 1459 1458 1460 1462 1462 1462 1462 1462 1463 1464 1465 1466 1467 1467 1467 1468 1468 1468 1469 1470
1461 1457 1451 1451 1452 1453 1453 1454 1454 1454 1455 1455 1456 1457 1458 1458 1459 1459 1459 1460 1460 1461
1457 1452 1447 1442 1442 1444 1444 1446 1445 1444 1444 1445 1446 1447 1448 1448 1449 1449 1449 1451 1451 1452
1449 1447 1439 1429 1430 1434 1435 1435 1435 1435 1434 1435 1436 1437 1438 1438 1438 1439 1439 1441 1441 1444
1447 1437 1429 1420 1424 1424 1425 1426 1426 1426 1427 1426 1426 1427 1427 1427 1428 1429 1429 1430 1432 1434
1436 1430 1422 1420 1418 1414 1417 1417 1416 1419 1419 1418 1417 1417 1418 1418 1418 1417 1418 1420 1421 1423
1429 1421 1415 1413 1409 1407 1409 1408 1408 1410 1410 1407 1408 1408 1408 1409 1410 1409 1409 1410 1412 1413
1422 1413 1411 1404 1399 1402 1398 1396 1402 1402 1399 1399 1399 1399 1400 1401 1401 1402 1401 1401 1401 1400
1411 1402 1396 1397 1397 1394 1393 1396 1395 1393 1391 1392 1391 1392 1394 1395 1395 1394 1392 1390 1388 1389
1401 1396 1396 1394 1390 1388 1387 1387 1386 1385 1384 1384 1386 1388 1389 1390 1388 1386 1383 1380 1379 1380
1400 1394 1390 1387 1384 1382 1381 1379 1379 1378 1378 1379 1382 1383 1384 1384 1382 1378 1375 1373 1372 1372
1394 1388 1384 1381 1376 1375 1375 1374 1373 1373 1373 1376 1377 1379 1380 1379 1376 1373 1371 1369 1368 1367